Weather History for Mineral Point, WI

Change the Weather History Date:

Thursday, February 14, 2013

  Actual Average (KLNR) Record (KLNR)
Temperature  
Mean Temperature 34 °F -  
Max Temperature 37 °F 32 °F 51 °F (2006)
Min Temperature 28 °F 16 °F -9 °F (2007)
Degree Days  
Heating Degree Days 32    
Moisture  
Dew Point 27 °F    
Average Humidity 76    
Maximum Humidity 93    
Minimum Humidity 56    
Precipitation  
Precipitation 0.00 in - - ()
Sea Level Pressure  
Sea Level Pressure 29.75 in    
Wind  
Wind Speed 11 mph (WNW)    
Max Wind Speed 20 mph    
Max Gust Speed 30 mph    
Visibility 10 miles    
Events Rain , Snow    
Averages and records for this station are not official NWS values.
T = Trace of Precipitation, MM = Missing Value Source: NWS Daily Summary

Daily Weather History Graph

Daily Weather History Graph

Search for Another Location

Airport:

Trip Planner

Search our weather history database for the weather conditions in past years. The results will help you decide how hot, cold, wet, or windy it might be!

Date:

Astronomy

Feb. 14, 2013 Rise Set
Actual Time 6:59 AM CST 5:31 PM CST
Civil Twilight 6:30 AM CST 6:00 PM CST
Nautical Twilight 5:56 AM CST 6:33 PM CST
Astronomical Twilight 5:24 AM CST 7:06 PM CST
Moon 8:53 AM CST (2/14) 10:43 PM CST (2/14)
Length of Visible Light 11h 30m
Length of Day
10h 32m
Waxing Crescent, 22% of the Moon is Illuminated
Feb 14
Waxing Crescent
Feb 17
First Quarter
Feb 25
Full
Mar 4
Last Quarter
Mar 11
New

Hourly Weather History & Observations

Time (CST) Temp. Windchill Dew Point Humidity Pressure Visibility Wind Dir Wind Speed Gust Speed Precip Events Conditions
12:15 AM 35.6 °F 29.9 °F 32.0 °F 87% 29.60 in 10.0 mi SSE 6.9 mph - N/A   Overcast
12:35 AM 37.4 °F 31.4 °F 32.0 °F 81% 29.60 in 10.0 mi SSE 8.1 mph - N/A   Overcast
12:55 AM 37.4 °F 32.1 °F 32.0 °F 81% 29.59 in 10.0 mi South 6.9 mph - N/A Rain Light Rain
1:15 AM 35.6 °F 30.7 °F 32.0 °F 87% 29.59 in 10.0 mi South 5.8 mph - N/A   Overcast
1:35 AM 35.6 °F 29.2 °F 32.0 °F 87% 29.58 in 10.0 mi South 8.1 mph - N/A   Overcast
1:55 AM 35.6 °F 28.6 °F 32.0 °F 87% 29.57 in 10.0 mi South 9.2 mph - N/A   Scattered Clouds
2:15 AM 35.6 °F 28.6 °F 30.2 °F 81% 29.56 in 10.0 mi South 9.2 mph - N/A   Clear
2:35 AM 35.6 °F 28.0 °F 30.2 °F 81% 29.56 in 10.0 mi SSW 10.4 mph - N/A   Clear
2:55 AM 35.6 °F 28.0 °F 30.2 °F 81% 29.56 in 10.0 mi SSW 10.4 mph - N/A   Clear
3:15 AM 35.6 °F 28.0 °F 30.2 °F 81% 29.55 in 10.0 mi SW 10.4 mph - N/A   Clear
3:35 AM 35.6 °F 27.5 °F 30.2 °F 81% 29.55 in 10.0 mi SW 11.5 mph - N/A   Clear
3:55 AM 35.6 °F 28.0 °F 30.2 °F 81% 29.55 in 10.0 mi WSW 10.4 mph - N/A   Clear
4:15 AM 35.6 °F 28.0 °F 30.2 °F 81% 29.55 in 10.0 mi WSW 10.4 mph - N/A   Scattered Clouds
4:35 AM 35.6 °F 27.5 °F 32.0 °F 87% 29.55 in 10.0 mi WSW 11.5 mph - N/A   Mostly Cloudy
4:55 AM 35.6 °F 27.1 °F 32.0 °F 87% 29.56 in 10.0 mi WSW 12.7 mph 19.6 mph N/A   Overcast
5:55 AM 35.6 °F 26.6 °F 32.0 °F 87% 29.57 in 10.0 mi West 13.8 mph - N/A   Overcast
6:15 AM 35.6 °F 26.6 °F 32.0 °F 87% 29.57 in 10.0 mi West 13.8 mph - N/A   Overcast
6:35 AM 35.6 °F 27.1 °F 32.0 °F 87% 29.58 in 10.0 mi West 12.7 mph - N/A   Overcast
6:55 AM 35.6 °F 26.6 °F 32.0 °F 87% 29.59 in 2.5 mi West 13.8 mph - N/A   Overcast
7:15 AM 35.6 °F 25.9 °F 32.0 °F 87% 29.59 in 5.0 mi West 16.1 mph 20.7 mph N/A   Overcast
7:35 AM 35.6 °F 26.2 °F 32.0 °F 87% 29.60 in 10.0 mi West 15.0 mph - N/A   Overcast
7:55 AM 33.8 °F 24.8 °F 32.0 °F 93% 29.61 in 3.0 mi West 12.7 mph - N/A Snow Light Snow
8:15 AM 33.8 °F 23.5 °F 32.0 °F 93% 29.62 in 4.0 mi West 16.1 mph - N/A Snow Light Snow
8:35 AM 33.8 °F 24.3 °F 32.0 °F 93% 29.63 in 10.0 mi WNW 13.8 mph 20.7 mph N/A   Overcast
8:55 AM 35.6 °F 26.2 °F 32.0 °F 87% 29.64 in 10.0 mi NW 15.0 mph 26.5 mph N/A Snow Light Snow
9:15 AM 35.6 °F 26.2 °F 32.0 °F 87% 29.66 in 10.0 mi NW 15.0 mph 26.5 mph N/A Snow Light Snow
9:55 AM 33.8 °F 23.9 °F 28.4 °F 81% 29.68 in 10.0 mi NW 15.0 mph 27.6 mph N/A   Overcast
10:15 AM 35.6 °F 24.8 °F 28.4 °F 75% 29.70 in 10.0 mi NNW 19.6 mph 29.9 mph N/A   Overcast
10:35 AM 35.6 °F 25.9 °F 28.4 °F 75% 29.71 in 10.0 mi NW 16.1 mph 20.7 mph N/A   Mostly Cloudy
10:55 AM 35.6 °F 25.5 °F 26.6 °F 70% 29.73 in 10.0 mi NW 17.3 mph 25.3 mph N/A   Mostly Cloudy
11:15 AM 35.6 °F 27.1 °F 26.6 °F 70% 29.74 in 10.0 mi NW 12.7 mph 20.7 mph N/A   Mostly Cloudy
11:35 AM 35.6 °F 26.6 °F 23.0 °F 60% 29.75 in 10.0 mi NW 13.8 mph 25.3 mph N/A   Scattered Clouds
11:55 AM 35.6 °F 25.9 °F 23.0 °F 60% 29.75 in 10.0 mi NW 16.1 mph 23.0 mph N/A   Scattered Clouds
12:15 PM 35.6 °F 26.6 °F 23.0 °F 60% 29.76 in 10.0 mi WNW 13.8 mph 21.9 mph N/A   Scattered Clouds
12:55 PM 35.6 °F 26.2 °F 21.2 °F 56% 29.77 in 10.0 mi NNW 15.0 mph 25.3 mph N/A   Overcast
1:15 PM 35.6 °F 26.2 °F 21.2 °F 56% 29.78 in 10.0 mi NW 15.0 mph 19.6 mph N/A   Overcast
1:55 PM 35.6 °F 27.5 °F 23.0 °F 60% 29.79 in 10.0 mi WNW 11.5 mph 18.4 mph N/A   Overcast
2:15 PM 35.6 °F 27.1 °F 21.2 °F 56% 29.80 in 10.0 mi WNW 12.7 mph 23.0 mph N/A   Overcast
2:35 PM 35.6 °F 28.0 °F 23.0 °F 60% 29.82 in 10.0 mi WNW 10.4 mph - N/A   Overcast
2:55 PM 35.6 °F 26.6 °F 23.0 °F 60% 29.82 in 10.0 mi WNW 13.8 mph 20.7 mph N/A   Overcast
3:15 PM 35.6 °F 26.6 °F 23.0 °F 60% 29.83 in 10.0 mi WNW 13.8 mph 20.7 mph N/A   Overcast
3:35 PM 35.6 °F 27.5 °F 23.0 °F 60% 29.84 in 10.0 mi WNW 11.5 mph 21.9 mph N/A   Overcast
3:55 PM 35.6 °F 27.1 °F 23.0 °F 60% 29.85 in 10.0 mi WNW 12.7 mph - N/A   Overcast
4:15 PM 35.6 °F 28.0 °F 23.0 °F 60% 29.86 in 10.0 mi WNW 10.4 mph 19.6 mph N/A   Overcast
4:35 PM 35.6 °F 28.6 °F 21.2 °F 56% 29.86 in 10.0 mi WNW 9.2 mph 20.7 mph N/A   Overcast
4:55 PM 33.8 °F 25.8 °F 21.2 °F 60% 29.88 in 10.0 mi WNW 10.4 mph 16.1 mph N/A   Mostly Cloudy
5:15 PM 33.8 °F 25.3 °F 23.0 °F 65% 29.88 in 10.0 mi WNW 11.5 mph - N/A   Overcast
5:35 PM 33.8 °F 26.4 °F 24.8 °F 70% 29.89 in 10.0 mi WNW 9.2 mph - N/A   Overcast
5:55 PM 33.8 °F 25.8 °F 24.8 °F 70% 29.90 in 10.0 mi WNW 10.4 mph 17.3 mph N/A   Overcast
6:15 PM 33.8 °F 27.0 °F 24.8 °F 70% 29.91 in 10.0 mi NW 8.1 mph - N/A   Overcast
6:35 PM 32.0 °F 23.6 °F 24.8 °F 75% 29.92 in 10.0 mi WNW 10.4 mph - N/A Snow Light Snow
6:55 PM 32.0 °F 23.6 °F 26.6 °F 80% 29.93 in 10.0 mi NW 10.4 mph 17.3 mph N/A Snow Light Snow
7:15 PM 32.0 °F 26.4 °F 26.6 °F 80% 29.93 in 7.0 mi NW 5.8 mph - N/A Snow Light Snow
7:35 PM 32.0 °F 27.5 °F 26.6 °F 80% 29.93 in 10.0 mi NW 4.6 mph - N/A   Mostly Cloudy
7:55 PM 32.0 °F 28.7 °F 28.4 °F 87% 29.93 in 10.0 mi WNW 3.5 mph - N/A Snow Light Snow
8:15 PM 32.0 °F 28.7 °F 28.4 °F 87% 29.94 in 10.0 mi West 3.5 mph - N/A Snow Light Snow
8:35 PM 30.2 °F 25.4 °F 26.6 °F 86% 29.94 in 10.0 mi WNW 4.6 mph - N/A   Overcast
9:15 PM 30.2 °F 24.3 °F 24.8 °F 80% 29.95 in 10.0 mi WNW 5.8 mph - N/A   Scattered Clouds
9:55 PM 30.2 °F 23.4 °F 26.6 °F 86% 29.96 in 10.0 mi West 6.9 mph - N/A Snow Light Snow
10:15 PM 30.2 °F 23.4 °F 26.6 °F 86% 29.96 in 10.0 mi NW 6.9 mph - N/A Snow Light Snow
10:35 PM 32.0 °F 24.2 °F 26.6 °F 80% 29.96 in 10.0 mi NW 9.2 mph 16.1 mph N/A Snow Light Snow
10:55 PM 30.2 °F 19.8 °F 21.2 °F 69% 29.97 in 10.0 mi NW 13.8 mph 19.6 mph N/A   Overcast
11:15 PM 30.2 °F 19.8 °F 21.2 °F 69% 29.98 in 10.0 mi NNW 13.8 mph - N/A   Overcast
11:35 PM 30.2 °F 20.8 °F 19.4 °F 64% 29.99 in 10.0 mi NW 11.5 mph 16.1 mph N/A   Overcast
11:55 PM 28.4 °F 17.5 °F 19.4 °F 69% 30.00 in 10.0 mi NW 13.8 mph - N/A   Overcast